FW8253 Weather Reports


Display with metric or nautical units.
time (UTC)temp
F
wind
direction
speed
MPH
gust
MPH
rain 1hr
in
rain 24hr
in
rain mn
in
humidity
%
barometer
mb
20260904081039 74 230 0.0 0.0 0.00 0.00 0.00 99 1016.8
20260904080534 73 230 0.0 0.0 0.00 0.00 0.00 99 1016.7
20260904080030 74 230 0.0 0.0 0.00 0.00 0.00 99 1016.7
20260904075526 74 230 0.0 0.0 0.00 0.00 0.00 99 1016.6
20260904075021 74 229 0.0 0.0 0.00 0.00 0.00 99 1016.8
20260904074515 74 239 0.0 0.0 0.00 0.00 0.00 99 1016.7
20260904074014 74 222 0.0 0.0 0.00 0.00 0.00 99 1016.9
20260904073510 75 223 0.0 0.0 0.00 0.00 0.00 99 1016.8
20260904073006 75 213 0.0 0.0 0.00 0.00 0.00 99 1016.7
20260904072502 75 177 0.0 0.0 0.00 0.00 0.00 99 1016.7
20260904071956 75 182 0.0 0.0 0.00 0.00 0.00 99 1016.7
20260904071451 75 182 0.0 0.0 0.00 0.00 0.00 99 1016.8
20260904070946 75 175 0.0 0.0 0.00 0.00 0.00 99 1016.8
20260904070444 75 175 0.0 0.0 0.00 0.00 0.00 99 1016.7
20260904065939 75 175 0.0 0.0 0.00 0.00 0.00 98 1016.7
20260904065436 75 174 0.0 0.0 0.00 0.00 0.00 98 1016.8
20260904064931 75 183 0.0 0.0 0.00 0.00 0.00 98 1017.0
20260904064427 76 184 0.0 0.0 0.00 0.00 0.00 98 1017.0
20260904063922 75 200 0.0 0.0 0.00 0.00 0.00 99 1017.0
20260904063419 75 178 0.0 0.0 0.00 0.00 0.00 98 1017.1
20260904062913 75 177 0.0 0.0 0.00 0.00 0.00 98 1017.2
20260904062409 75 177 0.0 0.0 0.00 0.00 0.00 98 1017.2
20260904061905 75 177 0.0 0.0 0.00 0.00 0.00 98 1017.4
20260904061401 75 177 0.0 0.0 0.00 0.00 0.00 97 1017.6
20260904060857 75 177 0.0 0.0 0.00 0.00 0.00 97 1017.5
20260904060353 75 176 0.0 0.0 0.00 0.00 0.00 97 1017.4
20260904055848 75 179 0.0 0.0 0.00 0.00 0.00 97 1017.5
20260904055343 76 179 0.0 0.0 0.00 0.00 0.00 97 1017.5
20260904054838 76 179 0.0 0.0 0.00 0.00 0.00 96 1017.8
20260904054334 76 179 0.0 0.0 0.00 0.00 0.00 96 1017.9
20260904053830 76 179 0.0 0.0 0.00 0.00 0.00 96 1017.6
20260904053329 76 181 0.0 0.0 0.00 0.00 0.00 96 1018.0
20260904052825 76 181 0.0 0.0 0.00 0.00 0.00 95 1017.9
20260904052321 76 181 0.0 0.0 0.00 0.00 0.00 95 1017.8
20260904051817 77 181 0.0 0.0 0.00 0.00 0.00 95 1017.9
20260904051313 77 180 0.0 0.0 0.00 0.00 0.00 95 1018.0
20260904050808 77 185 0.0 0.0 0.00 0.00 0.00 95 1017.9
20260904050305 77 187 0.0 0.0 0.00 0.00 0.00 94 1017.9
20260904045804 77 187 0.0 0.0 0.00 0.00 0.00 94 1017.9
20260904045259 77 196 0.0 0.0 0.00 0.00 0.00 94 1017.9
20260904044754 77 196 0.0 0.0 0.00 0.00 0.00 94 1017.9
20260904044251 77 200 0.0 0.0 0.00 0.00 0.00 94 1018.0
20260904043746 77 219 0.0 0.0 0.00 0.00 0.00 94 1017.9
20260904043243 77 220 0.0 0.0 0.00 0.00 0.00 93 1018.0
20260904042737 77 219 0.0 0.0 0.00 0.00 0.00 93 1018.0
20260904042234 77 220 0.0 0.0 0.00 0.00 0.00 93 1017.9
20260904041733 77 220 0.0 0.0 0.00 0.00 0.00 93 1018.0
20260904041229 77 220 0.0 0.0 0.00 0.00 0.00 92 1017.9
20260904040725 78 220 0.0 0.0 0.00 0.00 0.00 92 1017.9
20260904040220 78 220 0.0 0.0 0.00 0.00 0.00 92 1018.1
20260904035717 78 220 0.0 0.0 0.00 0.00 0.00 91 1017.9
20260904035212 78 220 0.0 0.0 0.00 0.00 0.00 91 1018.1
20260904034710 78 205 0.0 0.0 0.00 0.00 0.00 91 1018.1
20260904034207 78 195 0.0 0.0 0.00 0.00 0.00 90 1018.1
20260904033702 79 191 0.0 0.0 0.00 0.00 0.00 90 1018.1
20260904033159 79 191 0.0 0.0 0.00 0.00 0.00 89 1018.3
20260904032655 79 191 0.0 0.0 0.00 0.00 0.00 89 1017.9
20260904032153 80 192 0.0 0.0 0.00 0.00 0.00 88 1018.4
20260904031648 80 191 0.0 0.0 0.00 0.00 0.00 88 1018.3
20260904031144 80 190 0.0 0.0 0.00 0.00 0.00 87 1018.3
20260904030639 80 191 0.0 0.0 0.00 0.00 0.00 86 1018.3
20260904030134 80 191 0.0 0.0 0.00 0.00 0.00 86 1018.5
20260904025630 80 190 0.0 0.0 0.00 0.00 0.00 85 1018.3
20260904025125 80 187 0.0 0.0 0.00 0.00 0.00 85 1018.3
20260904024621 80 186 0.0 0.0 0.00 0.00 0.00 84 1018.2
20260904024116 81 194 0.0 0.0 0.00 0.00 0.00 84 1018.2
20260904023612 81 185 0.0 0.0 0.00 0.00 0.00 83 1018.3
20260904023108 81 187 0.0 0.0 0.00 0.00 0.00 82 1018.3
20260904022608 81 187 0.0 0.0 0.00 0.00 0.00 82 1018.2
20260904022105 81 187 0.0 0.0 0.00 0.00 0.00 81 1018.1
20260904021600 81 181 0.0 0.0 0.00 0.00 0.00 81 1018.1
20260904021055 81 181 0.0 0.0 0.00 0.00 0.00 81 1018.1
20260904020550 82 226 0.0 0.0 0.00 0.00 0.00 79 1018.0
20260904020045 82 226 0.0 0.0 0.00 0.00 0.00 79 1018.1
20260904015539 82 226 0.0 0.0 0.00 0.00 0.00 78 1017.8
20260904015038 82 210 0.0 0.0 0.00 0.00 0.00 77 1017.6
20260904014532 82 186 0.0 0.0 0.00 0.00 0.00 76 1017.7
20260904014028 82 184 0.0 0.0 0.00 0.00 0.00 76 1017.7
20260904013524 83 179 0.0 0.0 0.00 0.00 0.00 76 1017.5
20260904013020 83 186 0.0 0.0 0.00 0.00 0.00 75 1017.7
20260904012520 83 187 0.0 0.0 0.00 0.00 0.00 75 1017.3
20260904012015 83 189 0.0 0.0 0.00 0.00 0.00 74 1017.4
20260904011514 83 177 0.0 0.0 0.00 0.00 0.00 75 1017.3
20260904011010 83 214 0.0 0.0 0.00 0.00 0.00 74 1017.4
20260904010506 84 219 0.0 0.0 0.00 0.00 0.00 73 1017.1
20260904010001 84 209 0.0 0.0 0.00 0.00 0.00 73 1017.0
20260904005456 84 181 0.0 0.0 0.00 0.00 0.00 72 1016.9
20260904004951 85 181 0.0 0.0 0.00 0.00 0.00 72 1016.9
20260904004447 85 182 0.0 0.0 0.00 0.00 0.00 71 1016.9
20260904003947 85 199 0.0 0.0 0.00 0.00 0.00 70 1016.9
20260904003443 86 210 0.0 0.0 0.00 0.00 0.00 70 1016.8
20260904002938 86 220 0.0 0.0 0.00 0.00 0.00 69 1016.6
20260904002435 86 224 0.0 0.0 0.00 0.00 0.00 69 1016.3
20260904001933 87 203 0.0 0.0 0.00 0.00 0.00 68 1016.4
20260904001429 87 205 0.0 0.0 0.00 0.00 0.00 68 1016.2
20260904000929 88 227 0.0 0.0 0.00 0.00 0.00 67 1016.3
20260904000429 88 218 0.0 0.0 0.00 0.00 0.00 66 1016.0
20260903235924 88 216 0.0 0.0 0.00 0.00 0.00 65 1016.0
20260903235420 89 220 0.0 0.0 0.00 0.00 0.00 65 1015.9
20260903234919 89 212 0.0 0.0 0.00 0.00 0.00 64 1016.0
20260903234416 90 216 0.0 0.0 0.00 0.00 0.00 63 1016.1
20260903233912 91 225 0.0 0.0 0.00 0.00 0.00 62 1015.9
20260903233408 91 218 0.0 0.0 0.00 0.00 0.00 61 1015.8
20260903232908 91 215 0.0 0.0 0.00 0.00 0.00 61 1015.7
20260903232403 92 160 0.0 0.0 0.00 0.00 0.00 60 1015.6
20260903231902 92 191 0.0 0.0 0.00 0.00 0.00 60 1015.7
20260903231357 92 226 0.0 0.0 0.00 0.00 0.00 60 1015.8
20260903230853 92 228 0.0 0.0 0.00 0.00 0.00 60 1015.6
20260903230348 93 217 0.0 0.0 0.00 0.00 0.00 59 1015.7
20260903225844 93 223 0.0 0.0 0.00 0.00 0.00 58 1015.6
20260903225339 94 110 0.0 0.0 0.00 0.00 0.00 58 1015.8
20260903224836 94 231 0.0 0.0 0.00 0.00 0.00 57 1015.8
20260903224332 94 155 0.0 0.0 0.00 0.00 0.00 57 1015.9
20260903223827 94 233 0.0 0.0 0.00 0.00 0.00 57 1015.8
20260903223326 95 215 0.0 0.0 0.00 0.00 0.00 56 1015.9
20260903222821 95 201 0.0 0.0 0.00 0.00 0.00 56 1015.5
20260903222320 95 231 0.0 0.0 0.00 0.00 0.00 56 1015.7
20260903221815 95 224 0.0 0.0 0.00 0.00 0.00 55 1015.7
20260903221314 96 209 0.0 0.0 0.00 0.00 0.00 55 1015.7
20260903220812 96 230 0.0 0.0 0.00 0.00 0.00 54 1015.6
20260903220307 96 204 0.0 0.0 0.00 0.00 0.00 54 1015.6
20260903215805 96 99 0.0 0.0 0.00 0.00 0.00 55 1015.5
20260903215305 96 226 0.0 0.0 0.00 0.00 0.00 55 1015.5
20260903214759 96 230 0.0 0.0 0.00 0.00 0.00 54 1015.5
20260903214256 97 187 0.0 0.0 0.00 0.00 0.00 53 1015.5
20260903213750 97 216 0.0 0.0 0.00 0.00 0.00 52 1015.5
20260903213246 98 225 0.0 0.0 0.00 0.00 0.00 51 1015.8
20260903212742 99 219 0.0 0.0 0.00 0.00 0.00 49 1015.7
20260903212239 99 226 0.0 0.0 0.00 0.00 0.00 50 1015.6
20260903211737 98 188 0.0 0.0 0.00 0.00 0.00 51 1015.6
20260903211234 98 217 0.0 0.0 0.00 0.00 0.00 51 1015.4
20260903210730 97 199 0.0 0.0 0.00 0.00 0.00 52 1015.6
20260903210225 99 207 0.0 0.0 0.00 0.00 0.00 50 1015.8
20260903205724 99 231 0.0 0.0 0.00 0.00 0.00 46 1015.7
20260903205223 100 195 0.0 0.0 0.00 0.00 0.00 46 1015.7
20260903204719 100 201 0.0 0.0 0.00 0.00 0.00 45 1015.8
20260903204215 101 190 0.0 0.0 0.00 0.00 0.00 46 1015.7
20260903203711 100 260 0.0 0.0 0.00 0.00 0.00 46 1015.8
20260903203206 101 260 0.0 0.0 0.00 0.00 0.00 46 1015.7
20260903202700 101 79 0.0 0.0 0.00 0.00 0.00 46 1015.8
20260903202156 102 207 0.0 0.0 0.00 0.00 0.00 45 1016.0
20260903201655 100 189 0.0 0.0 0.00 0.00 0.00 47 1016.0
20260903201150 101 199 0.0 0.0 0.00 0.00 0.00 46 1016.1
20260903200644 102 90 0.0 0.0 0.00 0.00 0.00 46 1016.1
20260903200140 101 233 0.0 0.0 0.00 0.00 0.00 46 1016.3
20260903195636 101 310 0.0 0.0 0.00 0.00 0.00 46 1016.3
20260903195131 99 216 0.0 0.0 0.00 0.00 0.00 49 1016.6
20260903194626 99 235 0.0 0.0 0.00 0.00 0.00 48 1016.3
20260903194126 99 246 0.0 0.0 0.00 0.00 0.00 48 1016.7
20260903193622 99 164 0.0 0.0 0.00 0.00 0.00 48 1016.4
20260903193118 99 151 0.0 0.0 0.00 0.00 0.00 49 1016.8
20260903192614 99 58 0.0 0.0 0.00 0.00 0.00 48 1016.5
20260903192114 99 283 0.0 0.0 0.00 0.00 0.00 49 1016.7
20260903191610 101 187 0.0 0.0 0.00 0.00 0.00 45 1016.7
20260903191105 100 189 0.0 0.0 0.00 0.00 0.00 47 1016.6
20260903190604 98 222 0.0 0.0 0.00 0.00 0.00 51 1016.8
20260903190059 99 197 0.0 0.0 0.00 0.00 0.00 49 1016.9
20260903185554 100 262 0.0 0.0 0.00 0.00 0.00 49 1017.0
20260903185050 103 152 0.0 0.0 0.00 0.00 0.00 45 1017.0
20260903184546 100 97 0.0 0.0 0.00 0.00 0.00 47 1017.0
20260903184041 101 52 0.0 0.0 0.00 0.00 0.00 46 1017.0
20260903183540 100 204 0.0 0.0 0.00 0.00 0.00 47 1017.0
20260903183035 100 62 0.0 0.0 0.00 0.00 0.00 48 1017.0
20260903182533 100 159 0.0 0.0 0.00 0.00 0.00 48 1016.9
20260903182030 101 226 0.0 0.0 0.00 0.00 0.00 47 1017.2
20260903181528 100 217 0.0 0.0 0.00 0.00 0.00 49 1017.2
20260903181023 101 233 0.0 0.0 0.00 0.00 0.00 48 1017.2
20260903180519 99 26 0.0 0.0 0.00 0.00 0.00 49 1017.5
20260903180018 99 133 0.0 0.0 0.00 0.00 0.00 50 1017.4
20260903175517 100 166 0.0 0.0 0.00 0.00 0.00 49 1017.4
20260903175016 98 214 0.0 0.0 0.00 0.00 0.00 53 1017.5
20260903174511 96 166 0.0 0.0 0.00 0.00 0.00 54 1017.4
20260903174012 97 114 0.0 0.0 0.00 0.00 0.00 53 1017.5
20260903173506 99 128 0.0 0.0 0.00 0.00 0.00 51 1017.6
20260903173003 100 160 0.0 0.0 0.00 0.00 0.00 49 1017.8
20260903172457 99 207 0.0 0.0 0.00 0.00 0.00 51 1017.7
20260903171953 99 238 0.0 0.0 0.00 0.00 0.00 51 1017.8
20260903171447 98 174 0.0 0.0 0.00 0.00 0.00 52 1018.1
20260903170942 98 256 0.0 0.0 0.00 0.00 0.00 52 1017.7
20260903170437 97 0 0.0 0.0 0.00 0.00 0.00 53 1017.9
20260903165936 99 216 0.0 0.0 0.00 0.00 0.00 52 1018.0
20260903165430 99 1 0.0 0.0 0.00 0.00 0.00 52 1018.1
20260903164931 99 293 0.0 0.0 0.00 0.00 0.00 52 1018.2
20260903164426 98 355 0.0 0.0 0.00 0.00 0.00 51 1018.2
20260903163925 100 222 0.0 0.0 0.00 0.00 0.00 51 1018.0
20260903163421 99 225 0.0 0.0 0.00 0.00 0.00 52 1018.1
20260903162917 98 13 0.0 0.0 0.00 0.00 0.00 52 1018.5
20260903162414 98 212 0.0 0.0 0.00 0.00 0.00 52 1018.3
20260903161909 98 214 0.0 0.0 0.00 0.00 0.00 54 1018.5
20260903161404 96 179 0.0 0.0 0.00 0.00 0.00 54 1018.4
20260903160900 98 217 0.0 0.0 0.00 0.00 0.00 53 1018.6
20260903160359 97 29 0.0 0.0 0.00 0.00 0.00 54 1018.7
20260903155857 96 144 0.0 0.0 0.00 0.00 0.00 54 1018.8
20260903155353 95 168 0.0 0.0 0.00 0.00 0.00 57 1018.8
20260903154848 94 249 0.0 0.0 0.00 0.00 0.00 58 1018.8
20260903154345 94 240 0.0 0.0 0.00 0.00 0.00 58 1018.7
20260903153839 93 229 0.0 0.0 0.00 0.00 0.00 60 1019.1
20260903153335 94 328 0.0 0.0 0.00 0.00 0.00 61 1019.0
20260903152832 93 158 0.0 0.0 0.00 0.00 0.00 60 1019.1
20260903152327 92 80 0.0 0.0 0.00 0.00 0.00 62 1019.0
20260903151822 93 236 0.0 0.0 0.00 0.00 0.00 63 1018.9
20260903151318 93 181 0.0 0.0 0.00 0.00 0.00 60 1018.8
20260903150817 91 210 0.0 0.0 0.00 0.00 0.00 63 1019.0
20260903150318 92 192 0.0 0.0 0.00 0.00 0.00 65 1019.2
20260903145812 91 190 0.0 0.0 0.00 0.00 0.00 61 1019.0
20260903145307 92 243 0.0 0.0 0.00 0.00 0.00 62 1019.2
20260903144807 92 279 0.0 0.0 0.00 0.00 0.00 62 1018.9
20260903144302 92 185 0.0 0.0 0.00 0.00 0.00 62 1018.9
20260903143758 90 195 0.0 0.0 0.00 0.00 0.00 64 1019.0
20260903143254 89 212 0.0 0.0 0.00 0.00 0.00 66 1018.9
20260903142749 89 234 0.0 0.0 0.00 0.00 0.00 67 1019.0
20260903142245 89 219 0.0 0.0 0.00 0.00 0.00 65 1019.0
20260903141741 89 241 0.0 0.0 0.00 0.00 0.00 66 1019.1
20260903141236 88 276 0.0 0.0 0.00 0.00 0.00 65 1019.0
20260903140731 88 245 0.0 0.0 0.00 0.00 0.00 74 1018.8
20260903140226 88 245 0.0 0.0 0.00 0.00 0.00 72 1018.9
20260903135722 88 248 0.0 0.0 0.00 0.00 0.00 73 1018.9
20260903135217 87 179 0.0 0.0 0.00 0.00 0.00 74 1019.1
20260903134716 86 259 0.0 0.0 0.00 0.00 0.00 75 1019.1
20260903134212 84 234 0.0 0.0 0.00 0.00 0.00 78 1019.0
20260903133710 84 235 0.0 0.0 0.00 0.00 0.00 81 1019.2
20260903133206 85 234 0.0 0.0 0.00 0.00 0.00 80 1019.1
20260903132706 84 235 0.0 0.0 0.00 0.00 0.00 80 1019.2
20260903132200 83 236 0.0 0.0 0.00 0.00 0.00 80 1019.2
20260903131655 83 178 0.0 0.0 0.00 0.00 0.00 84 1019.2
20260903131154 82 178 0.0 0.0 0.00 0.00 0.00 87 1019.2
20260903130650 80 178 0.0 0.0 0.00 0.00 0.00 89 1019.5
20260903130144 80 178 0.0 0.0 0.00 0.00 0.00 90 1019.3
20260903125642 79 178 0.0 0.0 0.00 0.00 0.00 90 1019.6
20260903125137 78 177 0.0 0.0 0.00 0.00 0.00 92 1019.4
20260903124632 78 177 0.0 0.0 0.00 0.00 0.00 92 1019.5
20260903124131 77 177 0.0 0.0 0.00 0.00 0.00 94 1019.3
20260903123626 77 177 0.0 0.0 0.00 0.00 0.00 95 1019.4
20260903123125 76 177 0.0 0.0 0.00 0.00 0.00 96 1019.5
20260903122625 75 177 0.0 0.0 0.00 0.00 0.00 97 1019.5
20260903122125 74 177 0.0 0.0 0.00 0.00 0.00 98 1019.7
20260903121624 74 177 0.0 0.0 0.00 0.00 0.00 99 1019.4
20260903121120 73 177 0.0 0.0 0.00 0.00 0.00 99 1019.5
20260903120618 73 177 0.0 0.0 0.00 0.00 0.00 99 1019.5
20260903120113 73 177 0.0 0.0 0.00 0.00 0.00 99 1019.5
20260903115611 73 177 0.0 0.0 0.00 0.00 0.00 99 1019.2
20260903115107 73 177 0.0 0.0 0.00 0.00 0.00 99 1019.3
20260903114602 72 177 0.0 0.0 0.00 0.00 0.00 99 1019.4
20260903114058 72 177 0.0 0.0 0.00 0.00 0.00 99 1019.2
20260903113553 72 177 0.0 0.0 0.00 0.00 0.00 99 1019.3
20260903113049 72 177 0.0 0.0 0.00 0.00 0.00 99 1019.2
20260903112545 71 177 0.0 0.0 0.00 0.00 0.00 99 1019.2
20260903112044 71 177 0.0 0.0 0.00 0.00 0.00 99 1019.2
20260903111543 71 177 0.0 0.0 0.00 0.00 0.00 99 1019.1
20260903111039 72 177 0.0 0.0 0.00 0.00 0.00 99 1019.1
20260903110536 72 177 0.0 0.0 0.00 0.00 0.00 99 1018.8
20260903110030 72 177 0.0 0.0 0.00 0.00 0.00 99 1018.8
20260903105525 71 177 0.0 0.0 0.00 0.00 0.00 99 1018.8
20260903105020 72 177 0.0 0.0 0.00 0.00 0.00 99 1019.0
20260903104520 72 177 0.0 0.0 0.00 0.00 0.00 99 1018.7
20260903104016 72 177 0.0 0.0 0.00 0.00 0.00 99 1018.6
20260903103511 72 177 0.0 0.0 0.00 0.00 0.00 99 1018.5
20260903103008 72 177 0.0 0.0 0.00 0.00 0.00 99 1018.5
20260903102503 72 177 0.0 0.0 0.00 0.00 0.00 99 1018.5
20260903102001 72 177 0.0 0.0 0.00 0.00 0.00 99 1018.5
20260903101456 72 177 0.0 0.0 0.00 0.00 0.00 99 1018.4
20260903100952 72 177 0.0 0.0 0.00 0.00 0.00 99 1018.5
20260903100446 72 176 0.0 0.0 0.00 0.00 0.00 99 1018.3
20260903095944 72 177 0.0 0.0 0.00 0.00 0.00 99 1018.2
20260903095438 72 176 0.0 0.0 0.00 0.00 0.00 99 1018.3
20260903094934 72 176 0.0 0.0 0.00 0.00 0.00 99 1018.1
20260903094433 72 176 0.0 0.0 0.00 0.00 0.00 99 1018.3
20260903093929 73 176 0.0 0.0 0.00 0.00 0.00 99 1018.1
20260903093424 73 176 0.0 0.0 0.00 0.00 0.00 99 1018.2
20260903092920 73 176 0.0 0.0 0.00 0.00 0.00 99 1018.2
20260903092419 73 178 0.0 0.0 0.00 0.00 0.00 99 1018.2
20260903091918 73 178 0.0 0.0 0.00 0.00 0.00 99 1018.1
20260903091417 73 178 0.0 0.0 0.00 0.00 0.00 99 1018.2
20260903090912 73 178 0.0 0.0 0.00 0.00 0.00 99 1018.0
20260903090408 73 178 0.0 0.0 0.00 0.00 0.00 98 1018.2
20260903085906 73 178 0.0 0.0 0.00 0.00 0.00 98 1018.1
20260903085405 73 179 0.0 0.0 0.00 0.00 0.00 98 1018.2
20260903084905 73 179 0.0 0.0 0.00 0.00 0.00 98 1018.3
20260903084403 73 179 0.0 0.0 0.00 0.00 0.00 98 1018.1
20260903083859 73 178 0.0 0.0 0.00 0.00 0.00 98 1017.9
20260903083354 73 178 0.0 0.0 0.00 0.00 0.00 98 1018.1
20260903082853 73 178 0.0 0.0 0.00 0.00 0.00 98 1017.9
20260903082348 73 178 0.0 0.0 0.00 0.00 0.00 98 1017.7
20260903081844 73 178 0.0 0.0 0.00 0.00 0.00 98 1017.8